Regional Weather Roundup
Issued by NWS Sterling, VA

Home | Current Version | Previous Version | Graphics & Text | Print | Product List | Glossary On
Versions: 1 2 3 4 5 6 7 8 9 10 11 12 13 14 15 16 17 18 19 20 21 22 23 24 25 26 27 28 29 30 31 32 33 34 35 36 37 38 39 40 41 42 43 44 45 46 47 48 49 50
000
ASUS41 KLWX 262211
RWRLWX

REGIONAL WEATHER ROUNDUP
NATIONAL WEATHER SERVICE BALTIMORE MD/WASHINGTON DC
600 PM EDT SUN MAR 26 2017

Note: "FAIR" indicates few or no clouds below 12,000 feet
with no significant weather and/or obstructions to visibility.
 TC=TEMPERATURE CELSIUS

 * =Non NWS site. Station does not report precipitation (e.g. rain,
    snow, etc.), thunder, or fog.

DCZ001-MDZ009-015-VAZ040>042-051-053>054-262300-
WASHINGTON METRO

CITY           SKY/WX    TMP DP  RH WIND       PRES   REMARKS
WASHINGTON NAT CLOUDY    49  46  90 E12       30.25F
DULLES         CLOUDY    48  43  82 E8        30.23F
ANDREWS AFB    CLOUDY    47  45  91 E10       30.24S
FT BELVOIR     CLOUDY    50  45  81 VRB7      30.24F
QUANTICO       CLOUDY    52  48  86 E9        30.24F
COLLEGE PARK*  CLOUDY    46  43  87 E6        30.25S
LEESBURG*      CLOUDY    48  46  93 E6        30.23F
MANASSAS*      CLOUDY    50  45  83 E10       30.23F

$$

MDZ006>007-011-014-262300-
BALTIMORE METRO

CITY           SKY/WX    TMP DP  RH WIND       PRES   REMARKS
BWI AIRPORT    DRIZZLE   47  46  97 E12       30.27R FOG
MD SCIENCE CTR   N/A     48  43  82 MISG      30.28S
ANNAPOLIS      CLOUDY    48  45  89 E7        30.26F
FORT MEADE*    CLOUDY    45  43  93 E8        30.29S

$$

MDZ012-015-019>023-262300-
MARYLAND EASTERN SHORE

CITY           SKY/WX    TMP DP  RH WIND       PRES   REMARKS
OCEAN CITY     FOG       45  44  97 NE10      30.28F VSB 3/4
SALISBURY      CLOUDY    47  46  97 E12       30.26F FOG
BAY BRIDGE AP* CLOUDY    46  45  93 E8G17     30.26F FOG
CAMBRIDGE*     CLOUDY    46  45  93 E9G16     30.25F
EASTON*        CLOUDY    48  45  87 E13G18    30.29F

$$

MDZ017>025-262300-
SOUTHERN MARYLAND

CITY           SKY/WX    TMP DP  RH WIND       PRES   REMARKS
PATUXENT RIVER CLOUDY    50  49  96 E12       30.23F
ST INIGOES     CLOUDY    52  47  83 NE12      30.22F
LEONARDTOWN*   CLOUDY    50  45  81 E7        30.25S

$$

MDZ003>005-262300-
NORTH CENTRAL MARYLAND

CITY           SKY/WX    TMP DP  RH WIND       PRES   REMARKS
FREDERICK*     CLOUDY    48  48 100 E9        30.26F FOG
HAGERSTOWN APT CLOUDY    48  43  82 E8        30.20F
WESTMINSTER*   CLOUDY    45  45 100 SE7       30.24F FOG

$$

MDZ501>502-262300-
WESTERN MARYLAND

CITY           SKY/WX    TMP DP  RH WIND       PRES   REMARKS
OAKLAND*       FOG       41  41 100 SE15G25   30.07S VSB 1/2
CUMBERLAND*    CLOUDY    50  45  81 SE3       30.19F

$$

VAZ025>031-262300-
SHENANDOAH VALLEY

CITY           SKY/WX    TMP DP  RH WIND       PRES   REMARKS
WINCHESTER*    CLOUDY    45  43  93 SE10      30.18F FOG
FRONT ROYAL*   CLOUDY    50  46  87 E8        30.16S
LURAY*         CLOUDY    57  52  82 NE6       30.14S
NEW MARKET*    CLOUDY    51  47  84 N5        30.15S
STAUNTON*      CLOUDY    56  50  80 S7        30.16S
WAYNESBORO*    CLOUDY    53  51  94 SE8       30.15S

$$

WVZ021-048>050-054>055-262300-
EASTERN WEST VIRGINIA PANHANDLE

CITY           SKY/WX    TMP DP  RH WIND       PRES   REMARKS
MARTINSBURG    CLOUDY    47  44  90 E6        30.20F
PETERSBURG*    CLOUDY    53  47  81 NW5       30.13R

$$

VAZ036>039-050-262300-
CENTRAL FOOTHILLS

CITY           SKY/WX    TMP DP  RH WIND       PRES   REMARKS
CHARLOTTESVILL CLOUDY    55  48  77 NE10      30.18R
CULPEPER*      CLOUDY    52  47  84 NE6       30.21F
ORANGE*        CLOUDY    52  46  82 N7        30.21S
GORDONSVILLE*  CLOUDY    54  49  85 NE7       30.18S
WARRENTON*     CLOUDY    51  44  76 E8        30.20F

$$

VAZ055>057-262300-
NORTH AND CENTRAL PIEDMONT

CITY           SKY/WX    TMP DP  RH WIND       PRES   REMARKS
FREDERICKSBRG* CLOUDY    53  48  84 NE7       30.21F
STAFFORD*      CLOUDY    50  48  93 E8        30.26F

$$

NCZ024-NYZ072-PAZ021-071-VAZ022-071-262300-
OTHER REGIONAL OBSERVATIONS

CITY           SKY/WX    TMP DP  RH WIND       PRES   REMARKS
NEW YORK CITY  CLOUDY    41  34  76 E9        30.41F
PHILADELPHIA   CLOUDY    44  39  82 E16       30.34F
PITTSBURGH     PTSUNNY   61  53  75 SE14      29.97F
ROANOKE        LGT RAIN  61  57  87 SE5       30.15S
RICHMOND       PTSUNNY   66  54  65 E12       30.16S
RALEIGH        PTSUNNY   74  46  36 S8        30.13S

$$

ANZ530>537-262300-
MARINE OBSERVATIONS

STATION/POSITION TIME  TEMP    WIND        PRES
                       AIR SEA DIR/SP/G
                 (UTC) (F)     (DEG/KT/KT) (MB)
THOMAS PT LIGHT  2200   46 45  100/ 11/ 13   N/A
BALT KEY BRIDGE  2136   47     110/ 12/ 14 1025.2R
COVE POINT       2136   49     120/ 10/ 13 1024.5F
LEWISETTA        2136   51 50   80/  8/ 11 1023.4F
SOLOMONS ISLAND  2142   49 48   80/ 13/ 15   N/A
PINEY POINT      2130          100/ 13/ 14   N/A

$$




USA.gov is the U.S. government's official web portal to all federal, state and local government web resources and services.